| time (UTC) | temp F | wind direction | speed MPH | gust MPH | rain 1hr in | rain 24hr in | rain mn in | humidity % | barometer mb |
| 20260507111932 | 53 | 122 | 0.0 | 0.0 | 0.00 | 0.00 | 0.00 | 33 | 1017.9 |
| 20260507111429 | 52 | 273 | 0.0 | 0.0 | 0.00 | 0.00 | 0.00 | 33 | 1018.1 |
| 20260507110925 | 52 | 290 | 0.0 | 0.0 | 0.00 | 0.00 | 0.00 | 33 | 1017.8 |
| 20260507110421 | 52 | 265 | 0.0 | 0.0 | 0.00 | 0.00 | 0.00 | 34 | 1018.0 |
| 20260507105918 | 52 | 251 | 0.0 | 1.0 | 0.00 | 0.00 | 0.00 | 34 | 1017.9 |
| 20260507105415 | 52 | 279 | 0.0 | 0.0 | 0.00 | 0.00 | 0.00 | 35 | 1017.9 |
| 20260507104912 | 52 | 263 | 0.0 | 0.0 | 0.00 | 0.00 | 0.00 | 35 | 1017.9 |
| 20260507104409 | 52 | 75 | 0.0 | 0.0 | 0.00 | 0.00 | 0.00 | 35 | 1018.2 |
| 20260507103904 | 52 | 61 | 0.0 | 1.0 | 0.00 | 0.00 | 0.00 | 35 | 1018.1 |
| 20260507103402 | 51 | 247 | 0.0 | 0.0 | 0.00 | 0.00 | 0.00 | 36 | 1018.0 |
| 20260507102857 | 51 | 239 | 0.0 | 0.0 | 0.00 | 0.00 | 0.00 | 37 | 1018.2 |
| 20260507102354 | 52 | 50 | 0.0 | 0.0 | 0.00 | 0.00 | 0.00 | 37 | 1018.2 |
| 20260507101850 | 52 | 144 | 0.0 | 0.0 | 0.00 | 0.00 | 0.00 | 37 | 1017.9 |
| 20260507101345 | 52 | 163 | 0.0 | 0.0 | 0.00 | 0.00 | 0.00 | 37 | 1018.2 |
| 20260507100842 | 52 | 95 | 0.0 | 2.0 | 0.00 | 0.00 | 0.00 | 37 | 1018.1 |
| 20260507100340 | 52 | 143 | 0.0 | 0.0 | 0.00 | 0.00 | 0.00 | 36 | 1018.2 |
| 20260507095838 | 52 | 193 | 1.0 | 2.0 | 0.00 | 0.00 | 0.00 | 38 | 1018.1 |
| 20260507095334 | 52 | 225 | 1.0 | 2.0 | 0.00 | 0.00 | 0.00 | 39 | 1018.2 |
| 20260507094832 | 52 | 221 | 2.0 | 3.0 | 0.00 | 0.00 | 0.00 | 40 | 1018.2 |
| 20260507094328 | 51 | 204 | 1.0 | 3.0 | 0.00 | 0.00 | 0.00 | 40 | 1018.4 |
| 20260507093825 | 53 | 245 | 1.0 | 2.0 | 0.00 | 0.00 | 0.00 | 39 | 1018.4 |
| 20260507093324 | 52 | 133 | 0.0 | 3.0 | 0.00 | 0.00 | 0.00 | 38 | 1018.8 |
| 20260507092821 | 52 | 231 | 1.0 | 2.0 | 0.00 | 0.00 | 0.00 | 39 | 1018.6 |
| 20260507092318 | 52 | 199 | 0.0 | 1.0 | 0.00 | 0.00 | 0.00 | 38 | 1018.7 |
| 20260507091814 | 53 | 136 | 0.0 | 0.0 | 0.00 | 0.00 | 0.00 | 35 | 1018.7 |
| 20260507091310 | 53 | 208 | 0.0 | 0.0 | 0.00 | 0.00 | 0.00 | 34 | 1018.6 |
| 20260507090805 | 53 | 258 | 0.0 | 0.0 | 0.00 | 0.00 | 0.00 | 33 | 1018.6 |
| 20260507090302 | 53 | 141 | 0.0 | 0.0 | 0.00 | 0.00 | 0.00 | 32 | 1018.4 |
| 20260507085759 | 52 | 253 | 0.0 | 2.0 | 0.00 | 0.00 | 0.00 | 33 | 1018.7 |
| 20260507085256 | 52 | 245 | 0.0 | 0.0 | 0.00 | 0.00 | 0.00 | 35 | 1018.7 |
| 20260507084753 | 52 | 92 | 0.0 | 0.0 | 0.00 | 0.00 | 0.00 | 34 | 1018.8 |
| 20260507084249 | 52 | 95 | 0.0 | 0.0 | 0.00 | 0.00 | 0.00 | 34 | 1018.7 |
| 20260507083747 | 52 | 32 | 0.0 | 0.0 | 0.00 | 0.00 | 0.00 | 34 | 1018.8 |
| 20260507083244 | 52 | 29 | 0.0 | 0.0 | 0.00 | 0.00 | 0.00 | 34 | 1018.7 |
| 20260507082740 | 53 | 82 | 0.0 | 0.0 | 0.00 | 0.00 | 0.00 | 34 | 1018.9 |
| 20260507082236 | 53 | 82 | 0.0 | 0.0 | 0.00 | 0.00 | 0.00 | 34 | 1018.8 |
| 20260507081732 | 53 | 94 | 0.0 | 1.0 | 0.00 | 0.00 | 0.00 | 32 | 1018.8 |
| 20260507081228 | 53 | 166 | 0.0 | 0.0 | 0.00 | 0.00 | 0.00 | 34 | 1019.3 |
| 20260507080725 | 54 | 333 | 0.0 | 1.0 | 0.00 | 0.00 | 0.00 | 32 | 1019.0 |
| 20260507080221 | 54 | 198 | 0.0 | 2.0 | 0.00 | 0.00 | 0.00 | 32 | 1018.8 |
| 20260507075717 | 54 | 242 | 2.0 | 3.0 | 0.00 | 0.00 | 0.00 | 33 | 1019.0 |
| 20260507075214 | 54 | 208 | 1.0 | 3.0 | 0.00 | 0.00 | 0.00 | 33 | 1018.9 |
| 20260507074710 | 54 | 228 | 1.0 | 3.0 | 0.00 | 0.00 | 0.00 | 33 | 1019.1 |
| 20260507074209 | 53 | 234 | 1.0 | 2.0 | 0.00 | 0.00 | 0.00 | 34 | 1018.9 |
| 20260507073704 | 52 | 141 | 0.0 | 0.0 | 0.00 | 0.00 | 0.00 | 35 | 1019.1 |
| 20260507073201 | 52 | 121 | 0.0 | 0.0 | 0.00 | 0.00 | 0.00 | 36 | 1018.9 |
| 20260507072659 | 51 | 145 | 0.0 | 0.0 | 0.00 | 0.00 | 0.00 | 36 | 1019.1 |
| 20260507072155 | 52 | 134 | 0.0 | 0.0 | 0.00 | 0.00 | 0.00 | 37 | 1019.4 |
| 20260507071653 | 53 | 144 | 0.0 | 0.0 | 0.00 | 0.00 | 0.00 | 36 | 1019.4 |
| 20260507071149 | 53 | 224 | 0.0 | 2.0 | 0.00 | 0.00 | 0.00 | 35 | 1019.5 |
| 20260507070647 | 53 | 238 | 1.0 | 2.0 | 0.00 | 0.00 | 0.00 | 34 | 1019.4 |
| 20260507070143 | 53 | 246 | 2.0 | 2.0 | 0.00 | 0.00 | 0.00 | 35 | 1019.3 |
| 20260507065639 | 53 | 225 | 2.0 | 2.0 | 0.00 | 0.00 | 0.00 | 35 | 1019.6 |
| 20260507065136 | 53 | 208 | 0.0 | 2.0 | 0.00 | 0.00 | 0.00 | 35 | 1019.3 |
| 20260507064634 | 51 | 132 | 0.0 | 0.0 | 0.00 | 0.00 | 0.00 | 36 | 1019.5 |
| 20260507064133 | 52 | 160 | 0.0 | 0.0 | 0.00 | 0.00 | 0.00 | 36 | 1019.5 |
| 20260507063630 | 51 | 171 | 0.0 | 0.0 | 0.00 | 0.00 | 0.00 | 36 | 1019.5 |
| 20260507063127 | 51 | 107 | 0.0 | 0.0 | 0.00 | 0.00 | 0.00 | 36 | 1019.6 |
| 20260507062623 | 51 | 167 | 0.0 | 0.0 | 0.00 | 0.00 | 0.00 | 37 | 1019.4 |
| 20260507062121 | 53 | 131 | 0.0 | 2.0 | 0.00 | 0.00 | 0.00 | 36 | 1019.6 |
| 20260507061619 | 53 | 258 | 0.0 | 2.0 | 0.00 | 0.00 | 0.00 | 34 | 1019.5 |
| 20260507061117 | 53 | 255 | 2.0 | 2.0 | 0.00 | 0.00 | 0.00 | 34 | 1019.4 |
| 20260507060615 | 53 | 215 | 1.0 | 3.0 | 0.00 | 0.00 | 0.00 | 33 | 1019.3 |
| 20260507060111 | 53 | 200 | 0.0 | 2.0 | 0.00 | 0.00 | 0.00 | 34 | 1019.3 |
| 20260507055606 | 53 | 231 | 0.0 | 0.0 | 0.00 | 0.11 | 0.11 | 34 | 1019.5 |
| 20260507055102 | 53 | 43 | 0.0 | 0.0 | 0.00 | 0.11 | 0.11 | 32 | 1019.4 |
| 20260507054558 | 54 | 208 | 0.0 | 0.0 | 0.00 | 0.11 | 0.11 | 31 | 1019.3 |
| 20260507054055 | 53 | 222 | 0.0 | 0.0 | 0.00 | 0.11 | 0.11 | 32 | 1019.3 |
| 20260507053553 | 53 | 224 | 0.0 | 1.0 | 0.00 | 0.11 | 0.11 | 33 | 1019.4 |
| 20260507053052 | 52 | 249 | 0.0 | 0.0 | 0.00 | 0.11 | 0.11 | 34 | 1019.4 |
| 20260507052549 | 51 | 168 | 0.0 | 0.0 | 0.00 | 0.11 | 0.11 | 36 | 1019.0 |
| 20260507052046 | 50 | 94 | 0.0 | 0.0 | 0.00 | 0.11 | 0.11 | 38 | 1019.4 |
| 20260507051543 | 51 | 203 | 0.0 | 0.0 | 0.00 | 0.11 | 0.11 | 37 | 1019.0 |
| 20260507051040 | 49 | 254 | 0.0 | 0.0 | 0.00 | 0.11 | 0.11 | 38 | 1019.0 |
| 20260507050536 | 49 | 274 | 0.0 | 0.0 | 0.00 | 0.11 | 0.11 | 40 | 1019.4 |
| 20260507050033 | 49 | 268 | 0.0 | 0.0 | 0.00 | 0.11 | 0.11 | 40 | 1019.3 |
| 20260507045530 | 50 | 253 | 0.0 | 0.0 | 0.00 | 0.11 | 0.11 | 38 | 1019.4 |
| 20260507045027 | 50 | 221 | 0.0 | 0.0 | 0.00 | 0.11 | 0.11 | 37 | 1019.4 |
| 20260507044524 | 50 | 260 | 0.0 | 0.0 | 0.00 | 0.11 | 0.11 | 38 | 1019.4 |
| 20260507044021 | 51 | 257 | 0.0 | 1.0 | 0.00 | 0.11 | 0.11 | 37 | 1019.6 |
| 20260507043516 | 50 | 247 | 0.0 | 0.0 | 0.00 | 0.11 | 0.11 | 39 | 1019.4 |
| 20260507043014 | 50 | 269 | 0.0 | 0.0 | 0.00 | 0.11 | 0.11 | 39 | 1019.4 |
| 20260507042510 | 50 | 227 | 0.0 | 0.0 | 0.00 | 0.11 | 0.11 | 40 | 1019.5 |
| 20260507042006 | 49 | 211 | 0.0 | 0.0 | 0.00 | 0.11 | 0.11 | 40 | 1019.4 |
| 20260507041503 | 49 | 210 | 0.0 | 0.0 | 0.00 | 0.11 | 0.11 | 40 | 1019.5 |
| 20260507041000 | 49 | 237 | 0.0 | 0.0 | 0.00 | 0.11 | 0.11 | 41 | 1019.4 |
| 20260507040455 | 49 | 212 | 0.0 | 1.0 | 0.00 | 0.11 | 0.11 | 41 | 1019.4 |
| 20260507035951 | 49 | 233 | 0.0 | 0.0 | 0.00 | 0.11 | 0.11 | 40 | 1019.5 |
| 20260507035448 | 50 | 229 | 0.0 | 1.0 | 0.00 | 0.11 | 0.11 | 40 | 1019.5 |
| 20260507034945 | 50 | 234 | 0.0 | 0.0 | 0.00 | 0.11 | 0.11 | 40 | 1019.5 |
| 20260507034442 | 50 | 235 | 0.0 | 0.0 | 0.00 | 0.11 | 0.11 | 40 | 1019.4 |
| 20260507033940 | 50 | 224 | 0.0 | 2.0 | 0.00 | 0.11 | 0.11 | 40 | 1019.6 |
| 20260507033438 | 50 | 220 | 0.0 | 2.0 | 0.00 | 0.11 | 0.11 | 41 | 1019.4 |
| 20260507032934 | 50 | 215 | 0.0 | 2.0 | 0.00 | 0.11 | 0.11 | 41 | 1019.5 |
| 20260507032431 | 50 | 229 | 0.0 | 1.0 | 0.00 | 0.11 | 0.11 | 40 | 1019.3 |
| 20260507031927 | 51 | 237 | 0.0 | 0.0 | 0.00 | 0.11 | 0.11 | 39 | 1019.1 |
| 20260507031426 | 51 | 226 | 0.0 | 1.0 | 0.00 | 0.11 | 0.11 | 40 | 1018.9 |
| 20260507030921 | 51 | 213 | 0.0 | 1.0 | 0.00 | 0.11 | 0.11 | 40 | 1018.9 |
| 20260507030418 | 51 | 244 | 0.0 | 1.0 | 0.00 | 0.11 | 0.11 | 39 | 1018.9 |
| 20260507025915 | 52 | 246 | 0.0 | 0.0 | 0.00 | 0.11 | 0.11 | 38 | 1019.0 |
| 20260507025412 | 51 | 233 | 0.0 | 0.0 | 0.00 | 0.11 | 0.11 | 40 | 1018.9 |
| 20260507024910 | 52 | 234 | 0.0 | 0.0 | 0.00 | 0.11 | 0.11 | 39 | 1019.0 |
| 20260507024407 | 53 | 217 | 0.0 | 0.0 | 0.00 | 0.11 | 0.11 | 37 | 1019.0 |
| 20260507023903 | 54 | 257 | 0.0 | 0.0 | 0.00 | 0.11 | 0.11 | 35 | 1018.9 |
| 20260507023400 | 55 | 259 | 0.0 | 0.0 | 0.00 | 0.11 | 0.11 | 34 | 1019.0 |
| 20260507022857 | 56 | 238 | 0.0 | 0.0 | 0.00 | 0.11 | 0.11 | 32 | 1019.0 |
| 20260507022354 | 56 | 71 | 0.0 | 0.0 | 0.00 | 0.11 | 0.11 | 28 | 1018.9 |
| 20260507021850 | 56 | 63 | 0.0 | 0.0 | 0.00 | 0.11 | 0.11 | 29 | 1018.8 |
| 20260507021345 | 57 | 58 | 0.0 | 0.0 | 0.00 | 0.11 | 0.11 | 28 | 1018.8 |
| 20260507020843 | 57 | 53 | 0.0 | 0.0 | 0.00 | 0.11 | 0.11 | 28 | 1018.6 |
| 20260507020339 | 58 | 44 | 0.0 | 0.0 | 0.00 | 0.11 | 0.11 | 27 | 1018.6 |
| 20260507015836 | 58 | 39 | 0.0 | 0.0 | 0.00 | 0.11 | 0.11 | 27 | 1018.7 |
| 20260507015335 | 58 | 50 | 0.0 | 0.0 | 0.00 | 0.11 | 0.11 | 28 | 1018.7 |
| 20260507014831 | 58 | 70 | 0.0 | 0.0 | 0.00 | 0.11 | 0.11 | 26 | 1018.7 |
| 20260507014327 | 59 | 61 | 0.0 | 2.0 | 0.00 | 0.11 | 0.11 | 25 | 1018.7 |
| 20260507013824 | 59 | 42 | 0.0 | 1.0 | 0.00 | 0.11 | 0.11 | 26 | 1018.6 |
| 20260507013321 | 59 | 47 | 0.0 | 1.0 | 0.00 | 0.11 | 0.11 | 26 | 1018.9 |
| 20260507012819 | 60 | 71 | 0.0 | 2.0 | 0.00 | 0.11 | 0.11 | 25 | 1018.8 |
| 20260507012314 | 59 | 47 | 0.0 | 2.0 | 0.00 | 0.11 | 0.11 | 26 | 1018.7 |
| 20260507011806 | 60 | 0 | 0.0 | 2.0 | 0.00 | 0.11 | 0.11 | 25 | 1019.0 |
| 20260507011303 | 60 | 39 | 1.0 | 2.0 | 0.00 | 0.11 | 0.11 | 25 | 1018.7 |
| 20260507010802 | 60 | 64 | 2.0 | 2.0 | 0.00 | 0.11 | 0.11 | 25 | 1018.9 |
| 20260507010258 | 60 | 49 | 0.0 | 3.0 | 0.00 | 0.11 | 0.11 | 24 | 1018.8 |
| 20260507005756 | 60 | 20 | 3.0 | 3.0 | 0.00 | 0.11 | 0.11 | 24 | 1018.7 |
| 20260507005252 | 60 | 26 | 2.0 | 3.0 | 0.00 | 0.11 | 0.11 | 24 | 1018.8 |
| 20260507004749 | 60 | 53 | 2.0 | 2.0 | 0.00 | 0.11 | 0.11 | 24 | 1018.9 |
| 20260507004247 | 61 | 35 | 2.0 | 3.0 | 0.00 | 0.11 | 0.11 | 24 | 1019.1 |
| 20260507003743 | 61 | 79 | 2.0 | 3.0 | 0.00 | 0.11 | 0.11 | 24 | 1018.8 |
| 20260507003238 | 61 | 14 | 3.0 | 3.0 | 0.00 | 0.11 | 0.11 | 23 | 1018.9 |
| 20260507002734 | 60 | 19 | 2.0 | 3.0 | 0.00 | 0.11 | 0.11 | 24 | 1018.7 |
| 20260507002230 | 60 | 20 | 2.0 | 3.0 | 0.00 | 0.11 | 0.11 | 24 | 1019.0 |
| 20260507001727 | 61 | 6 | 1.0 | 5.0 | 0.00 | 0.11 | 0.11 | 24 | 1018.9 |
| 20260507001225 | 61 | 17 | 1.0 | 3.0 | 0.00 | 0.11 | 0.11 | 24 | 1018.8 |
| 20260507000721 | 61 | 313 | 1.0 | 3.0 | 0.00 | 0.11 | 0.11 | 24 | 1018.8 |
| 20260507000216 | 60 | 10 | 2.0 | 6.0 | 0.00 | 0.11 | 0.11 | 24 | 1018.8 |
| 20260506235714 | 60 | 25 | 2.0 | 3.0 | 0.00 | 0.11 | 0.11 | 24 | 1018.7 |
| 20260506235209 | 60 | 29 | 3.0 | 5.0 | 0.00 | 0.11 | 0.11 | 24 | 1018.9 |
| 20260506234706 | 60 | 289 | 1.0 | 3.0 | 0.00 | 0.11 | 0.11 | 25 | 1018.7 |
| 20260506234204 | 60 | 279 | 1.0 | 2.0 | 0.00 | 0.11 | 0.11 | 24 | 1018.6 |
| 20260506233701 | 61 | 50 | 3.0 | 6.0 | 0.00 | 0.11 | 0.11 | 23 | 1018.8 |
| 20260506233157 | 61 | 8 | 4.0 | 5.0 | 0.00 | 0.11 | 0.11 | 23 | 1018.7 |
| 20260506232654 | 61 | 11 | 2.0 | 3.0 | 0.00 | 0.11 | 0.11 | 24 | 1018.9 |
| 20260506232149 | 61 | 10 | 2.0 | 5.0 | 0.00 | 0.11 | 0.11 | 24 | 1018.7 |
| 20260506231646 | 60 | 48 | 3.0 | 5.0 | 0.00 | 0.11 | 0.11 | 24 | 1018.9 |
| 20260506231145 | 61 | 14 | 4.0 | 5.0 | 0.00 | 0.11 | 0.11 | 24 | 1018.9 |
| 20260506230641 | 60 | 0 | 2.0 | 6.0 | 0.00 | 0.11 | 0.11 | 24 | 1018.7 |
| 20260506230138 | 61 | 14 | 3.0 | 3.0 | 0.00 | 0.11 | 0.11 | 24 | 1018.9 |
| 20260506225635 | 60 | 26 | 2.0 | 5.0 | 0.00 | 0.11 | 0.11 | 24 | 1018.9 |
| 20260506225131 | 60 | 318 | 0.0 | 3.0 | 0.00 | 0.11 | 0.11 | 25 | 1018.8 |
| 20260506224628 | 60 | 355 | 4.0 | 9.0 | 0.00 | 0.11 | 0.11 | 25 | 1019.3 |
| 20260506224124 | 60 | 352 | 2.0 | 5.0 | 0.00 | 0.11 | 0.11 | 24 | 1018.8 |
| 20260506223621 | 60 | 27 | 3.0 | 5.0 | 0.00 | 0.11 | 0.11 | 24 | 1019.0 |
| 20260506223117 | 60 | 281 | 4.0 | 9.0 | 0.00 | 0.11 | 0.11 | 24 | 1019.0 |
| 20260506222614 | 59 | 270 | 2.0 | 5.0 | 0.00 | 0.11 | 0.11 | 25 | 1019.0 |
| 20260506222110 | 60 | 339 | 3.0 | 5.0 | 0.00 | 0.11 | 0.11 | 25 | 1019.0 |
| 20260506221608 | 59 | 331 | 3.0 | 8.0 | 0.00 | 0.11 | 0.11 | 25 | 1019.3 |
| 20260506221106 | 59 | 84 | 2.0 | 5.0 | 0.00 | 0.11 | 0.11 | 26 | 1019.1 |
| 20260506220602 | 60 | 15 | 3.0 | 5.0 | 0.00 | 0.11 | 0.11 | 26 | 1019.4 |
| 20260506220057 | 60 | 18 | 4.0 | 6.0 | 0.00 | 0.11 | 0.11 | 26 | 1019.0 |
| 20260506215554 | 58 | 14 | 3.0 | 5.0 | 0.00 | 0.11 | 0.11 | 27 | 1019.3 |
| 20260506215050 | 59 | 316 | 3.0 | 7.0 | 0.00 | 0.11 | 0.11 | 27 | 1019.4 |
| 20260506214547 | 60 | 36 | 3.0 | 8.0 | 0.00 | 0.11 | 0.11 | 26 | 1019.3 |
| 20260506214044 | 58 | 9 | 3.0 | 5.0 | 0.00 | 0.11 | 0.11 | 27 | 1019.5 |
| 20260506213543 | 58 | 30 | 2.0 | 5.0 | 0.00 | 0.11 | 0.11 | 27 | 1019.7 |
| 20260506213040 | 59 | 309 | 3.0 | 5.0 | 0.00 | 0.11 | 0.11 | 27 | 1019.5 |
| 20260506212536 | 58 | 349 | 0.0 | 3.0 | 0.00 | 0.11 | 0.11 | 28 | 1019.6 |
| 20260506212031 | 58 | 331 | 4.0 | 6.0 | 0.00 | 0.11 | 0.11 | 27 | 1019.7 |
| 20260506211527 | 58 | 11 | 3.0 | 5.0 | 0.00 | 0.11 | 0.11 | 28 | 1019.6 |
| 20260506211024 | 57 | 347 | 1.0 | 6.0 | 0.00 | 0.11 | 0.11 | 27 | 1019.6 |
| 20260506210521 | 58 | 32 | 1.0 | 7.0 | 0.00 | 0.11 | 0.11 | 28 | 1019.7 |
| 20260506210017 | 58 | 350 | 1.0 | 5.0 | 0.00 | 0.11 | 0.11 | 27 | 1019.5 |
| 20260506205514 | 57 | 1 | 2.0 | 3.0 | 0.00 | 0.11 | 0.11 | 27 | 1019.6 |
| 20260506205009 | 57 | 336 | 0.0 | 3.0 | 0.00 | 0.11 | 0.11 | 28 | 1019.6 |
| 20260506204508 | 57 | 339 | 4.0 | 9.0 | 0.00 | 0.11 | 0.11 | 27 | 1019.6 |
| 20260506204004 | 57 | 322 | 2.0 | 6.0 | 0.00 | 0.11 | 0.11 | 28 | 1019.5 |
| 20260506203502 | 57 | 15 | 3.0 | 9.0 | 0.00 | 0.11 | 0.11 | 27 | 1019.6 |
| 20260506202958 | 57 | 348 | 1.0 | 7.0 | 0.00 | 0.11 | 0.11 | 28 | 1019.6 |
| 20260506202455 | 57 | 334 | 4.0 | 7.0 | 0.00 | 0.11 | 0.11 | 27 | 1019.5 |
| 20260506201946 | 57 | 4 | 2.0 | 5.0 | 0.00 | 0.11 | 0.11 | 28 | 1019.5 |
| 20260506201444 | 56 | 268 | 3.0 | 7.0 | 0.00 | 0.11 | 0.11 | 28 | 1019.6 |
| 20260506200941 | 57 | 335 | 3.0 | 6.0 | 0.00 | 0.11 | 0.11 | 28 | 1019.6 |
| 20260506200437 | 57 | 5 | 3.0 | 6.0 | 0.00 | 0.11 | 0.11 | 29 | 1019.4 |
| 20260506195933 | 57 | 6 | 4.0 | 6.0 | 0.00 | 0.11 | 0.11 | 28 | 1019.6 |
| 20260506195430 | 57 | 324 | 2.0 | 5.0 | 0.00 | 0.11 | 0.11 | 29 | 1019.4 |
| 20260506194927 | 56 | 349 | 3.0 | 5.0 | 0.00 | 0.11 | 0.11 | 29 | 1019.6 |
| 20260506194424 | 56 | 74 | 2.0 | 5.0 | 0.00 | 0.11 | 0.11 | 29 | 1019.5 |
| 20260506193921 | 57 | 325 | 2.0 | 6.0 | 0.00 | 0.11 | 0.11 | 28 | 1019.6 |
| 20260506193419 | 56 | 14 | 2.0 | 9.0 | 0.00 | 0.11 | 0.11 | 28 | 1019.6 |
| 20260506192915 | 55 | 13 | 5.0 | 6.0 | 0.00 | 0.11 | 0.11 | 28 | 1019.4 |
| 20260506192412 | 55 | 2 | 3.0 | 8.0 | 0.00 | 0.11 | 0.11 | 28 | 1019.3 |
| 20260506191909 | 55 | 12 | 4.0 | 10.0 | 0.00 | 0.11 | 0.11 | 26 | 1019.3 |
| 20260506191405 | 55 | 329 | 4.0 | 8.0 | 0.00 | 0.11 | 0.11 | 28 | 1019.4 |
| 20260506190902 | 55 | 21 | 3.0 | 3.0 | 0.00 | 0.11 | 0.11 | 28 | 1019.5 |
| 20260506190358 | 55 | 5 | 2.0 | 14.0 | 0.00 | 0.11 | 0.11 | 28 | 1019.5 |
| 20260506185855 | 55 | 354 | 4.0 | 8.0 | 0.00 | 0.11 | 0.11 | 30 | 1019.4 |
| 20260506185352 | 55 | 24 | 2.0 | 6.0 | 0.00 | 0.11 | 0.11 | 28 | 1019.5 |
| 20260506184849 | 54 | 352 | 4.0 | 6.0 | 0.00 | 0.11 | 0.11 | 28 | 1019.5 |
| 20260506184346 | 54 | 0 | 5.0 | 7.0 | 0.00 | 0.11 | 0.11 | 27 | 1019.5 |
| 20260506183844 | 55 | 289 | 2.0 | 5.0 | 0.00 | 0.11 | 0.11 | 28 | 1019.3 |
| 20260506183339 | 54 | 358 | 4.0 | 6.0 | 0.00 | 0.11 | 0.11 | 27 | 1019.4 |
| 20260506182836 | 53 | 354 | 3.0 | 5.0 | 0.00 | 0.11 | 0.11 | 28 | 1019.5 |
| 20260506182333 | 53 | 354 | 5.0 | 10.0 | 0.00 | 0.11 | 0.11 | 26 | 1019.6 |
| 20260506181831 | 53 | 11 | 4.0 | 5.0 | 0.00 | 0.11 | 0.11 | 29 | 1019.5 |
| 20260506181329 | 52 | 9 | 3.0 | 5.0 | 0.00 | 0.11 | 0.11 | 28 | 1019.5 |
| 20260506180826 | 52 | 19 | 4.0 | 5.0 | 0.00 | 0.11 | 0.11 | 28 | 1019.6 |
| 20260506180321 | 52 | 18 | 6.0 | 9.0 | 0.00 | 0.11 | 0.11 | 29 | 1019.4 |
| 20260506175818 | 52 | 32 | 3.0 | 6.0 | 0.00 | 0.11 | 0.11 | 25 | 1019.4 |
| 20260506175315 | 52 | 21 | 2.0 | 6.0 | 0.00 | 0.11 | 0.11 | 29 | 1019.5 |
| 20260506174812 | 52 | 24 | 3.0 | 8.0 | 0.00 | 0.11 | 0.11 | 27 | 1019.4 |
| 20260506174309 | 52 | 338 | 5.0 | 6.0 | 0.00 | 0.11 | 0.11 | 27 | 1019.3 |
| 20260506173807 | 52 | 339 | 5.0 | 9.0 | 0.00 | 0.11 | 0.11 | 27 | 1019.0 |
| 20260506173304 | 52 | 336 | 4.0 | 9.0 | 0.00 | 0.11 | 0.11 | 28 | 1019.1 |
| 20260506172801 | 52 | 330 | 6.0 | 8.0 | 0.00 | 0.11 | 0.11 | 28 | 1019.3 |
| 20260506172257 | 51 | 6 | 5.0 | 9.0 | 0.00 | 0.11 | 0.11 | 30 | 1018.9 |
| 20260506171755 | 51 | 14 | 3.0 | 5.0 | 0.00 | 0.11 | 0.11 | 29 | 1019.1 |
| 20260506171251 | 51 | 336 | 5.0 | 8.0 | 0.00 | 0.11 | 0.11 | 29 | 1018.9 |
| 20260506170749 | 52 | 356 | 3.0 | 7.0 | 0.00 | 0.11 | 0.11 | 30 | 1018.9 |
| 20260506170245 | 51 | 333 | 3.0 | 5.0 | 0.00 | 0.11 | 0.11 | 31 | 1018.7 |
| 20260506165744 | 51 | 30 | 5.0 | 6.0 | 0.00 | 0.11 | 0.11 | 28 | 1019.0 |
| 20260506165241 | 51 | 357 | 4.0 | 5.0 | 0.00 | 0.11 | 0.11 | 31 | 1018.6 |
| 20260506164738 | 51 | 18 | 2.0 | 6.0 | 0.00 | 0.11 | 0.11 | 31 | 1018.7 |
| 20260506164235 | 51 | 198 | 2.0 | 5.0 | 0.00 | 0.11 | 0.11 | 28 | 1018.4 |
| 20260506163731 | 51 | 24 | 3.0 | 5.0 | 0.00 | 0.11 | 0.11 | 28 | 1018.6 |
| 20260506163226 | 51 | 15 | 5.0 | 8.0 | 0.00 | 0.11 | 0.11 | 27 | 1018.4 |
| 20260506162723 | 51 | 304 | 3.0 | 5.0 | 0.00 | 0.11 | 0.11 | 29 | 1018.3 |
| 20260506162220 | 51 | 3 | 3.0 | 7.0 | 0.00 | 0.11 | 0.11 | 27 | 1018.3 |
| 20260506161718 | 51 | 350 | 4.0 | 8.0 | 0.00 | 0.11 | 0.11 | 26 | 1018.2 |
| 20260506161215 | 51 | 345 | 3.0 | 8.0 | 0.00 | 0.11 | 0.11 | 25 | 1018.0 |
| 20260506160712 | 51 | 358 | 3.0 | 6.0 | 0.00 | 0.11 | 0.11 | 27 | 1017.9 |
| 20260506160209 | 51 | 276 | 2.0 | 6.0 | 0.00 | 0.11 | 0.11 | 27 | 1018.0 |
| 20260506155707 | 50 | 346 | 4.0 | 5.0 | 0.00 | 0.11 | 0.11 | 34 | 1017.9 |
| 20260506155204 | 50 | 327 | 4.0 | 6.0 | 0.00 | 0.11 | 0.11 | 36 | 1018.0 |
| 20260506153306 | 50 | 17 | 3.0 | 6.0 | 0.00 | 0.11 | 0.11 | 37 | 1017.5 |
| 20260506152803 | 50 | 6 | 2.0 | 5.0 | 0.00 | 0.11 | 0.11 | 39 | 1017.5 |
| 20260506152300 | 50 | 13 | 4.0 | 5.0 | 0.00 | 0.11 | 0.11 | 39 | 1017.6 |
| 20260506151759 | 50 | 6 | 1.0 | 5.0 | 0.00 | 0.11 | 0.11 | 42 | 1017.4 |
| 20260506151255 | 49 | 354 | 3.0 | 6.0 | 0.00 | 0.11 | 0.11 | 40 | 1017.5 |
| 20260506150751 | 49 | 305 | 3.0 | 8.0 | 0.00 | 0.11 | 0.11 | 41 | 1017.4 |
| 20260506150249 | 49 | 292 | 2.0 | 8.0 | 0.00 | 0.11 | 0.11 | 39 | 1017.2 |
| 20260506145746 | 49 | 6 | 3.0 | 7.0 | 0.00 | 0.11 | 0.11 | 46 | 1017.3 |
| 20260506145242 | 49 | 2 | 2.0 | 3.0 | 0.00 | 0.11 | 0.11 | 49 | 1017.1 |
| 20260506144739 | 48 | 8 | 3.0 | 5.0 | 0.00 | 0.11 | 0.11 | 48 | 1017.1 |
| 20260506144236 | 49 | 2 | 3.0 | 3.0 | 0.00 | 0.11 | 0.11 | 48 | 1017.2 |
| 20260506143734 | 48 | 359 | 1.0 | 3.0 | 0.00 | 0.11 | 0.11 | 45 | 1016.8 |
| 20260506143231 | 48 | 332 | 3.0 | 5.0 | 0.00 | 0.11 | 0.11 | 46 | 1016.9 |
| 20260506142730 | 48 | 27 | 3.0 | 3.0 | 0.00 | 0.11 | 0.11 | 48 | 1016.9 |
| 20260506142227 | 48 | 3 | 3.0 | 3.0 | 0.00 | 0.11 | 0.11 | 48 | 1016.9 |
| 20260506141725 | 48 | 12 | 3.0 | 5.0 | 0.00 | 0.11 | 0.11 | 48 | 1016.9 |
| 20260506141224 | 48 | 4 | 3.0 | 5.0 | 0.00 | 0.11 | 0.11 | 48 | 1016.9 |
| 20260506140721 | 48 | 331 | 4.0 | 5.0 | 0.00 | 0.11 | 0.11 | 49 | 1017.1 |
| 20260506140217 | 48 | 7 | 2.0 | 3.0 | 0.00 | 0.11 | 0.11 | 52 | 1016.8 |
| 20260506135714 | 48 | 18 | 0.0 | 3.0 | 0.00 | 0.11 | 0.11 | 54 | 1016.5 |
| 20260506135210 | 47 | 343 | 1.0 | 2.0 | 0.00 | 0.11 | 0.11 | 53 | 1016.8 |
| 20260506134707 | 47 | 8 | 1.0 | 2.0 | 0.00 | 0.11 | 0.11 | 55 | 1016.5 |
| 20260506134203 | 46 | 5 | 0.0 | 2.0 | 0.00 | 0.11 | 0.11 | 54 | 1016.7 |
| 20260506133701 | 46 | 5 | 2.0 | 3.0 | 0.00 | 0.11 | 0.11 | 53 | 1016.5 |
| 20260506133157 | 46 | 359 | 3.0 | 3.0 | 0.00 | 0.11 | 0.11 | 55 | 1016.5 |
| 20260506132655 | 45 | 343 | 2.0 | 3.0 | 0.00 | 0.11 | 0.11 | 58 | 1016.2 |
| 20260506132151 | 45 | 356 | 0.0 | 2.0 | 0.00 | 0.11 | 0.11 | 59 | 1016.1 |
| 20260506131649 | 44 | 335 | 0.0 | 1.0 | 0.00 | 0.11 | 0.11 | 66 | 1016.1 |
| 20260506131145 | 44 | 357 | 0.0 | 2.0 | 0.00 | 0.11 | 0.11 | 67 | 1015.9 |
| 20260506130642 | 43 | 312 | 0.0 | 0.0 | 0.00 | 0.11 | 0.11 | 68 | 1015.9 |
| 20260506130139 | 43 | 327 | 0.0 | 2.0 | 0.00 | 0.11 | 0.11 | 68 | 1015.5 |
| 20260506125638 | 43 | 26 | 0.0 | 0.0 | 0.00 | 0.11 | 0.11 | 70 | 1015.8 |
| 20260506125135 | 43 | 344 | 0.0 | 0.0 | 0.00 | 0.11 | 0.11 | 69 | 1015.8 |
| 20260506124633 | 43 | 298 | 1.0 | 2.0 | 0.00 | 0.11 | 0.11 | 67 | 1015.4 |
| 20260506124130 | 43 | 296 | 0.0 | 0.0 | 0.00 | 0.11 | 0.11 | 67 | 1015.5 |
| 20260506123628 | 43 | 296 | 0.0 | 2.0 | 0.00 | 0.11 | 0.11 | 68 | 1015.4 |
| 20260506123126 | 42 | 299 | 1.0 | 2.0 | 0.00 | 0.11 | 0.11 | 68 | 1015.5 |
| 20260506122622 | 43 | 283 | 0.0 | 0.0 | 0.00 | 0.11 | 0.11 | 68 | 1015.4 |
| 20260506122120 | 43 | 286 | 0.0 | 2.0 | 0.00 | 0.11 | 0.11 | 65 | 1015.5 |
| 20260506121618 | 43 | 289 | 1.0 | 2.0 | 0.00 | 0.11 | 0.11 | 66 | 1015.4 |
| 20260506121114 | 43 | 300 | 2.0 | 2.0 | 0.00 | 0.11 | 0.11 | 68 | 1015.4 |
| 20260506120612 | 43 | 282 | 2.0 | 2.0 | 0.00 | 0.11 | 0.11 | 68 | 1015.5 |
| 20260506120109 | 42 | 288 | 2.0 | 3.0 | 0.00 | 0.11 | 0.11 | 68 | 1015.3 |
| 20260506115608 | 43 | 304 | 2.0 | 2.0 | 0.00 | 0.11 | 0.11 | 68 | 1015.3 |
| 20260506115106 | 43 | 293 | 3.0 | 3.0 | 0.00 | 0.11 | 0.11 | 65 | 1015.3 |
| 20260506114602 | 43 | 296 | 3.0 | 3.0 | 0.00 | 0.11 | 0.11 | 66 | 1015.2 |
| 20260506114101 | 43 | 289 | 3.0 | 3.0 | 0.00 | 0.11 | 0.11 | 68 | 1015.3 |
| 20260506113558 | 43 | 302 | 2.0 | 3.0 | 0.00 | 0.11 | 0.11 | 69 | 1015.3 |
| 20260506113055 | 43 | 311 | 3.0 | 3.0 | 0.00 | 0.11 | 0.11 | 67 | 1015.4 |
| 20260506112552 | 43 | 286 | 3.0 | 3.0 | 0.00 | 0.11 | 0.11 | 67 | 1015.2 |
| 20260506112049 | 42 | 292 | 3.0 | 3.0 | 0.00 | 0.11 | 0.11 | 69 | 1015.4 |